OpenBCM V1.08-5-g2f4a (Linux)

Packet Radio Mailbox

IZ3LSV

[San Dona' di P. JN]

 Login: GUEST





  
LU9DCE > KEPS     25.02.18 18:13l 260 Lines 12970 Bytes #999 (0) @ WW
BID : 32792_LU9DCE
Read: GUEST
Subj: SAT TLE OF 25
Path: IZ3LSV<IR2UBX<EA2RCF<LU9DCE
Sent: 180225/1601Z @:LU9DCE.TOR.BA.ARG.SOAM #:32792 [TORTUGUITAS] FBB7.07
From: LU9DCE@LU9DCE.TOR.BA.ARG.SOAM
To  : KEPS@WW


            __    _  _  ___  ____   ___  ____    ____  ____  ____
           (  )  / )( \/ _ \(    \ / __)(  __)  (  _ \(  _ \/ ___)
           / (_/\) \/ (\__  )) D (( (__  ) _)    ) _ ( ) _ (\___ \
           \____/\____/(___/(____/ \___)(____)  (____/(____/(____/
               ESTACION DE PACKET RADIO - BUENOS AIRES (GF05OM)
                   BOLETINES INFORMATIVOS PROGRAMADOS (BIP)
                    LU9DCE@GMX.COM - RF 147070 @ 1200 BAUD
                           telnet lu9dce.dynu.com
             BBS port 6300 / NODE port 3694 / DXCLUSTER port 9000

+------------------------------------------------------------------------------+
OSCAR 7
1 07530U 74089B   18056.54277646 -.00000024  00000-0  12730-3 0  9997
2 07530 101.6724  25.6035 0011957 189.9994 285.9448 12.53631375980600
OSCAR 11 (UoSAT 2)
1 14781U 84021B   18056.53583301  .00000059  00000-0  13408-4 0  9998
2 14781  97.6646  97.4249 0010025  89.9796 270.2567 14.82982656827896
OSCAR 19 (LUSAT)
1 20442U 90005G   18055.85797315 +.00000000 +00000-0 +16120-4 0  9994
2 20442 098.6008 355.1014 0012727 119.0348 241.2113 14.32887416467745
KITSAT B
1 22825U 93061C   18055.92147709 +.00000015 +00000-0 +23526-4 0  9994
2 22825 098.8494 030.0823 0007713 320.1546 039.9068 14.30022626273258
POSAT 1
1 22826U 93061D   18055.89431206  .00000017  00000-0  24135-4 0  9998
2 22826  98.8436  30.1063 0008094 308.8475  51.1984 14.30353519273700
RADIO ROSTO
1 23439U 94085A   18055.70263119 -.00000047 +00000-0 -13151-3 0  9992
2 23439 064.8160 170.7541 0161041 202.1249 265.9765 11.27566517953880
JAS 2
1 24278U 96046B   18055.61240447 -.00000006 +00000-0 +28477-4 0  9994
2 24278 098.5280 269.8095 0351046 043.1173 319.6900 13.53081794062764
TECHSAT 1B
1 25397U 98043D   18055.86129775 -.00000014  00000-0  12958-4 0  9999
2 25397  98.6393 358.2244 0001541  32.7165 327.4109 14.23640305 19744
ISS (ZARYA)
1 25544U 98067A   18055.95109271 +.00002260 +00000-0 +41351-4 0  9991
2 25544 051.6417 218.2331 0003200 129.4624 344.6132 15.54146562101069
PCSAT
1 26931U 01043C   18056.55858455 -.00000033  00000-0  19067-4 0  9998
2 26931  67.0518 157.4455 0006006 282.3247  77.7182 14.30494956856580
SAUDISAT 1C
1 27607U 02058C   18056.51083706  .00000011  00000-0  22240-4 0  9993
2 27607  64.5546  71.3805 0051981 354.9531   5.1040 14.75422429816489
CUTE-1
1 27844U 03031E   18055.94845618 +.00000062 +00000-0 +47547-4 0  9995
2 27844 098.6892 066.2485 0009355 342.6812 017.4045 14.22096137760209
CUBESAT XI 4
1 27848U 03031J   18055.94700841 +.00000046 +00000-0 +40804-4 0  9998
2 27848 098.6980 066.6062 0009445 353.1736 006.9311 14.21702469760084
MOZHAYETS 4
1 27939U 03042A   18056.56524486  .00000073  00000-0  21524-4 0  9997
2 27939  97.9712 198.7036 0013932 138.6260 288.1238 14.66659933770452
CUBESAT XI 5
1 28895U 05043F   18055.94637249 +.00000132 +00000-0 +34144-4 0  9993
2 28895 097.8915 212.0554 0018011 066.5566 293.7528 14.63511955657225
CUTE-1.7+APD II
1 32785U 08021C   18055.88903817 +.00000233 +00000-0 +30946-4 0  9993
2 32785 097.5527 073.3999 0014336 055.1242 305.1321 14.88066310532404
DELFI C3
1 32789U 08021G   18055.75178331 +.00001211 +00000-0 +87726-4 0  9993
2 32789 097.5277 113.3465 0011338 327.4035 032.6491 15.05773354534862
SEEDS
1 32791U 08021J   18055.62288437 +.00000313 +00000-0 +37401-4 0  9998
2 32791 097.5444 078.2375 0014266 038.8955 321.3288 14.90473816532668
YUBELEINY
1 32953U 08025A   18056.48796142  .00000032  00000-0  15609-3 0  9997
2 32953  82.4991  82.1485 0020389  93.8034 266.5378 12.43081869442890
PRISM (HITOMI)
1 33493U 09002B   18056.34670253  .00001124  00000-0  10545-3 0  9999
2 33493  98.1415 314.0830 0014833 332.4148  27.6261 14.96094457493622
KKS-1 (KISEKI)
1 33499U 09002H   18055.59325224 +.00000096 +00000-0 +22309-4 0  9995
2 33499 098.3496 233.7291 0008050 294.1375 065.8991 14.75296952488154
SWISSCUBE
1 35932U 09051B   18055.95053910 +.00000134 +00000-0 +41415-4 0  9995
2 35932 098.5270 204.5237 0007645 186.2902 173.8200 14.56123873447060
BEESAT
1 35933U 09051C   18055.64235009  .00000126  00000-0  39406-4 0  9991
2 35933  98.5310 205.6832 0005553 198.0632 162.0369 14.56231750447167
ITUPSAT 1
1 35935U 09051E   18055.90868042 +.00000098 +00000-0 +33687-4 0  9994
2 35935 098.5423 206.2100 0007945 195.0624 165.0337 14.55413063446967
XIWANG-1 (HOPE-1)
1 36122U 09072B   18055.90512668 -.00000030 +00000-0 +30702-4 0  9998
2 36122 100.0832 075.7605 0007640 017.1039 343.0332 13.16343539393773
TISAT 1
1 36799U 10035E   18056.42676734  .00000382  00000-0  44969-4 0  9991
2 36799  98.0883 189.8090 0011796 209.8169 150.2378 14.90702803413509
JUGNU
1 37839U 11058B   18056.18518396  .00000320  00000-0  28647-4 0  9992
2 37839  19.9627 356.4069 0019085  92.4946  41.9809 14.12610188329519
SRMSAT
1 37841U 11058D   18056.32810878  .00000312  00000-0  26163-4 0  9993
2 37841  19.9733  42.4335 0011739 342.8401 159.0278 14.10599125329060
M-CUBED/EXP-1 PRIME
1 37855U 11061F   18055.93285913 +.00001809 +00000-0 +10021-3 0  9991
2 37855 101.7260 061.0161 0177724 054.4053 307.3574 15.04085566344304
HORYU 2
1 38340U 12025D   18055.91202945 +.00000186 +00000-0 +35448-4 0  9992
2 38340 098.3739 073.7357 0011115 202.4976 157.5746 14.75502944300144
STRAND 1
1 39090U 13009E   18055.92158964 +.00000006 +00000-0 +17634-4 0  9998
2 39090 098.5321 263.6919 0008090 271.2255 088.8003 14.35012019261707
SOMP
1 39134U 13015E   18055.68502299  .00001267  00000-0  69854-4 0  9992
2 39134  64.8632 130.7454 0023455 226.0137 133.9057 15.18835138267810
BEESAT 3
1 39135U 13015F   18055.59055085 +.00000973 +00000-0 +59502-4 0  9991
2 39135 064.8698 142.9661 0029355 247.4699 112.3319 15.16414965267184
BEESAT 2
1 39136U 13015G   18055.71905798 +.00001210 +00000-0 +72533-4 0  9995
2 39136 064.8701 145.0370 0029769 247.8078 111.9888 15.15894789267153
CUBEBUG 1
1 39153U 13018D   18056.03904483  .00000183  00000-0  30964-4 0  9993
2 39153  97.9783 151.9614 0015871 312.5710  47.4162 14.80344185260992
ZACUBE
1 39417U 13066B   18056.15267380  .00000204  00000-0  32162-4 0  9996
2 39417  97.6003  90.7009 0059760 160.8113 199.5370 14.80879691230218
TRITON 1
1 39427U 13066M   18055.94319227 +.00000145 +00000-0 +31516-4 0  9997
2 39427 097.6383 059.3347 0112711 258.8642 099.9875 14.67614594227928
GOMX 1
1 39430U 13066Q   18056.17742219  .00000239  00000-0  52768-4 0  9994
2 39430  97.6866  41.1929 0150863 324.6293  34.4972 14.59029002226822
HUMSAT D
1 39433U 13066T   18055.82505583 +.00000402 +00000-0 +44980-4 0  9998
2 39433 097.6195 116.0557 0032577 096.8110 263.6817 14.91755832230491
50 SAT
1 39436U 13066W   18056.48193632  .00059279  00000-0  71162-3 0  9999
2 39436  97.7109 183.7182 0006333 246.5134 113.5457 15.60690642235803
CUBEBUG 2
1 39440U 13066AA  18056.52811048  .00000178  00000-0  31951-4 0  9994
2 39440  97.6089  78.3591 0080211 197.1406 162.7093 14.75616225229453
FUNCUBE 1
1 39444U 13066AE  18055.66667789 +.00000251 +00000-0 +37368-4 0  9993
2 39444 097.6017 091.6221 0058986 158.2364 202.1376 14.81645043228999
UWE-3
1 39446U 13066AG  18055.86210253 +.00000179 +00000-0 +30576-4 0  9990
2 39446 097.6034 083.7174 0070354 180.8746 179.2354 14.78148885227938
SPROUT
1 39770U 14029E   18056.53761883  .00000878  00000-0  10497-3 0  9990
2 39770  97.8725 158.5684 0008475 206.5083 153.5706 14.86682251203770
UNISAT 6
1 40012U 14033C   18055.91888327 +.00000146 +00000-0 +29359-4 0  9996
2 40012 097.8251 296.2412 0057931 199.6648 160.2327 14.73767673198162
DUCHIFAT 1
1 40021U 14033M   18055.72734046 +.00000442 +00000-0 +51458-4 0  9997
2 40021 097.9176 334.2448 0012694 183.2322 176.8816 14.90205372200203
QB50P1
1 40025U 14033R   18055.76435399 +.00000279 +00000-0 +35966-4 0  9998
2 40025 097.9086 331.3795 0012122 188.5905 171.5106 14.88641732199551
CHUBUSAT 1
1 40300U 14070C   18056.21828447  .00000596  00000-0  29568-4 0  9999
2 40300  97.3729 136.2742 0018656 298.0777 139.1218 15.21397115183256
NUDT-PHONESAT
1 40900U 15049B   18055.94497163 +.00002225 +00000-0 +10377-3 0  9996
2 40900 097.4434 065.5207 0015178 065.6378 294.6440 15.20821297134855
ZDPS 2A
1 40901U 15049C   18056.53574633  .00000897  00000-0  48831-4 0  9991
2 40901  97.4599  64.6376 0015383  68.6292 291.6581 15.16871080134731
ZDPS 2B
1 40902U 15049D   18056.23070186  .00000808  00000-0  44561-4 0  9991
2 40902  97.4489  62.5475 0015407  66.9694 293.3163 15.16676771134679
XW-2A
1 40903U 15049E   18056.50085016  .00001864  00000-0  48630-4 0  9994
2 40903  97.3979  90.1922 0016088  75.2897 285.0131 15.40038427136617
KAITUO 1A
1 40904U 15049F   18056.52362448  .00000429  00000-0  26529-4 0  9993
2 40904  97.4589  62.2066 0016497  67.0447  47.6187 15.14892837134591
OBJECT G
1 40905U 15049G   18056.51422191  .00000408  00000-0  26103-4 0  9990
2 40905  97.4575  60.4603 0017298  60.3668 299.9284 15.13866084134522
XW-2C
1 40906U 15049H   18056.50669191  .00000661  00000-0  38778-4 0  9995
2 40906  97.4596  62.0612 0016553  60.3661 299.9217 15.15028715134585
XW-2D
1 40907U 15049J   18056.53588156  .00000724  00000-0  41992-4 0  9992
2 40907  97.4568  61.8013 0015895  58.4938 301.7844 15.15167589134592
LILACSAT 2
1 40908U 15049K   18055.94739685 +.00000396 +00000-0 +25756-4 0  9997
2 40908 097.4676 060.7243 0017528 060.6303 299.6676 15.13413946134397
XW-2F
1 40910U 15049M   18055.90952605 +.00001078 +00000-0 +58990-4 0  9999
2 40910 097.4575 062.3001 0016599 056.9867 303.2958 15.16279231134562
XW-2B
1 40911U 15049N   18056.21919675  .00000679  00000-0  39679-4 0  9994
2 40911  97.4606  61.9845 0015823  59.9938 300.2862 15.15115668134440
